SCOUT X-4 R/B, 1358

Orbit data source: Space-Track

SCOUT X-4 R/B, 1358 is space debris in LEO originally from a launch on Thu, 29 Apr 1965 UTC launched from the Wallops Island (WLPIS). Debris objects in space refer to the collection of defunct objects orbiting the Earth. Examples of debris include non-operational satellites, rocket bodies, and fragments generated from explosions, collisions, or faulty payload assembly.

Loading next visibility...
Identifier
1358, 1965-032B
Orbit
LEO
Country
Flag of USUS
Related business
Manufacturer
ABL
Mission
Spacecraft
Bus & Motor
ALTAIR, Unknown motor
Mass
33 kg wet, 33 kg dry
Launch date (UTC)
1965-04-29 (61 years ago)
Launch vehicle
Unknown
Launch site
Wallops Island (WLPIS)
Object type
Payload
Rocket body
Debris
Shape & HBR
Unknown
Radar Cross Section
Medium (>0.1 m² and <1 m²)

Expand to show TLE details & history
Last TLE update: 14 hours ago

TLE from 14 hours ago
0 SCOUT X-4 R/B
1 01358U 65032B   25342.49164615 -.00000021  00000-0  95443-4 0  9998
2 01358  41.1885 162.8471 0244738 313.0980  44.9529 13.38232991962121
Epoch: 2025-12-08T11:47Z
TLE epoch observation values (Epoch: 2025-12-08T11:47:58.227Z)
Latitude
Longitude
-91.63542°
Altitude
988.003 km
Speed
7.421 km/s
True Right ascension
10h 51m 23s
True Declination
0° 00' 00"
Sunlit
Object was in daylight at epoch
Visualization orbit readout
Latitude
Unknown
Longitude
Unknown
Altitude
Unknown
Speed
Unknown
Apparent Right ascension
Unknown
Apparent Declination
Unknown
Sunlit
N/A
Visualization observer readout
Local Sidereal Time
00:03:13
Azimuth
Unknown
Elevation
Unknown
Doppler factor
Unknown
Orbital elements
Apogee altitude
1,301.387 km
Perigee altitude
934.472 km
Semi-major axis
7,496.066 km
Eccentricity
0.02447
Inclination
41.1885°
RAAN
162.8471°
Arg. of periapsis
313.098°
True anomaly
46.97773°
Mean anomaly
44.9529°
Eccentric anomaly
45.96093°
Mean motion
3.34421 °/min
Orbital period
107.65 mins
BSTAR
0.000095443
Loading maneuver chart data...
Computing Atmospheric mass density...
Loading historical data...
Loading historical data...
Loading historical data...
Loading historical data...
Loading historical data...
Loading historical data...
Loading historical data...
Other satellites on launch #32 in the year 1965 (1965-04-29 UTC)

Documentation

Showing up to 5 results
|